Wind_Speed
9 10 9 9 8 8 8 7 11 15 16 14 13 13 13 13 13 13 12 11 11 12 12 12 11 10 9 8 8 7 7 6 6 5 4 3 2 2 1 1 1 1 1 1 1 1 2 2 2
9 9 9 9 7 10 13 13 16 17 17 16 14 14 14 13 13 15 14 14 14 14 13 12 12 11 10 9 9 8 8 7 7 6 5 4 3 3 2 2 2 2 1 1 1 1 1 1 1
9 9 9 9 8 10 13 18 20 21 18 16 16 15 15 14 13 15 15 15 14 15 14 13 12 11 11 10 9 9 8 8 7 6 6 5 4 4 3 3 3 2 2 2 2 2 3 3 2
9 8 8 8 8 9 15 20 22 21 18 17 16 16 14 14 14 14 15 16 15 16 15 14 13 12 11 11 10 9 8 8 8 7 7 6 5 5 4 4 4 3 3 3 3 3 4 4 4
8 7 7 11 10 12 18 21 20 18 15 17 17 17 14 15 15 15 16 16 15 16 15 15 13 12 12 11 11 10 9 8 8 8 7 7 6 6 5 5 5 4 4 4 5 5 5 5 5
8 7 9 11 10 16 20 20 18 16 16 15 17 17 14 15 16 16 15 16 16 17 16 15 14 13 12 12 11 10 9 9 9 8 8 7 7 7 6 6 6 6 6 6 6 5 5 6 6
8 7 7 6 10 15 19 18 16 16 17 15 16 18 15 15 17 17 16 17 18 17 17 17 15 14 13 12 12 11 10 10 9 9 8 8 8 7 7 7 7 7 6 6 6 5 5 6 6
7 6 7 5 11 13 16 18 17 16 18 17 17 19 16 16 17 17 17 18 18 17 18 17 16 14 13 12 12 12 11 11 10 9 9 9 8 8 8 8 7 7 6 6 5 6 5 5 6
7 6 6 6 12 13 15 17 18 18 18 17 17 18 17 17 17 18 18 19 18 18 18 17 16 15 14 13 13 13 12 11 11 10 10 10 9 8 8 8 7 7 6 6 6 6 6 6 6
6 6 4 10 12 14 15 18 18 19 20 19 19 18 19 18 18 18 18 20 18 18 19 19 18 16 15 15 14 13 13 12 11 11 10 10 10 9 8 8 8 7 7 7 7 7 6 6 6
8 5 7 10 13 15 17 17 18 20 20 21 21 19 19 18 18 18 19 20 20 20 20 19 19 18 16 16 14 14 14 13 12 11 10 10 9 8 7 7 7 6 6 7 7 7 6 6 6
10 10 11 13 15 18 19 19 19 20 21 21 20 21 20 19 19 19 20 20 20 20 20 19 19 18 17 16 15 15 14 13 12 11 10 8 7 6 6 6 5 5 5 5 5 5 6 6 6
10 12 13 14 16 20 22 20 20 19 20 20 21 22 20 19 19 19 20 22 20 21 22 21 20 20 18 17 16 15 14 12 11 10 9 8 7 6 5 5 4 4 4 3 3 3 4 5 5
10 11 12 14 17 22 25 23 21 21 20 20 20 20 20 18 17 18 18 20 21 23 21 21 21 20 19 17 15 15 13 12 10 9 8 6 5 5 5 4 4 3 3 3 3 3 3 4 4
11 13 15 17 19 21 25 24 23 22 23 21 20 19 17 16 17 18 17 20 21 21 22 21 22 21 19 18 16 14 12 11 10 9 6 5 5 4 4 3 2 2 2 2 2 3 3 3 3
12 15 18 19 21 22 25 24 24 23 22 21 19 18 16 14 13 16 16 17 19 21 23 22 21 20 19 17 16 14 13 11 9 8 6 5 4 3 3 2 2 1 1 1 2 2 3 3 3
12 14 15 18 21 22 24 23 24 23 22 21 19 17 15 12 11 12 14 15 18 20 22 22 21 21 19 18 15 14 12 11 10 8 6 5 4 3 2 2 1 1 1 1 2 2 2 3 3
12 12 13 15 20 21 22 21 21 21 21 20 19 17 15 12 10 10 11 14 16 19 22 22 21 20 19 17 16 14 12 10 9 8 7 5 4 3 3 2 2 1 1 1 2 2 3 3 3
12 12 14 15 20 20 20 19 18 19 21 20 19 16 15 12 9 9 10 13 15 17 20 20 20 19 18 16 15 14 12 10 9 8 7 6 4 4 3 3 2 1 1 1 2 3 3 3 4
11 13 15 17 19 18 18 18 19 18 20 20 19 17 15 12 10 7 8 9 13 16 17 18 18 18 18 17 15 13 12 10 9 8 7 6 5 4 4 3 2 1 1 1 2 3 3 4 4
11 14 16 17 16 15 16 17 19 19 18 18 18 17 15 12 9 6 6 7 10 13 16 16 17 17 17 16 14 13 11 10 9 9 8 7 6 5 4 3 2 1 0 1 2 3 3 4 4
13 15 16 15 13 13 13 14 18 22 19 19 18 17 16 13 9 5 4 6 8 11 14 15 15 15 15 14 14 12 11 11 10 10 9 8 6 5 5 4 3 2 1 1 2 2 3 4 4
15 15 14 13 14 16 11 10 17 19 21 21 19 17 15 13 9 5 2 4 5 8 11 13 13 13 13 13 13 13 12 11 10 10 10 8 7 6 5 5 4 3 3 3 4 4 4 5 5
16 14 12 17 20 17 10 9 16 17 20 20 18 16 14 12 9 5 2 1 4 6 8 10 12 13 13 13 13 12 12 12 11 10 10 8 8 7 7 6 5 5 5 6 6 7 7 7 8
15 15 14 16 21 21 14 8 14 16 18 18 17 15 12 10 8 6 5 2 1 4 7 9 10 11 12 13 12 12 12 12 11 11 10 9 8 8 8 7 8 8 8 9 9 10 10 11 11
15 15 16 18 17 18 16 13 13 16 17 16 15 13 10 9 8 6 4 3 1 3 5 7 9 10 11 12 12 12 12 11 11 11 10 10 10 10 9 9 10 10 11 11 12 13 13 14 14
16 16 16 18 16 15 15 15 15 14 16 16 15 12 10 8 7 5 3 3 1 1 3 5 7 9 10 11 11 11 11 11 11 11 11 11 11 11 11 12 12 13 13 14 15 15 16 17 18
17 15 15 15 14 13 14 17 17 14 18 18 16 13 9 7 6 5 3 2 1 1 2 5 7 9 10 10 10 11 11 12 12 12 12 13 13 13 14 14 15 15 16 17 17 18 19 20 20
19 16 16 15 14 13 15 18 20 17 17 18 15 13 11 8 7 6 5 4 3 3 4 6 7 9 10 11 11 11 12 12 12 13 13 14 15 15 16 17 17 18 19 20 20 21 22 23 23
21 17 17 17 15 14 14 20 20 17 15 15 15 14 12 10 8 7 7 6 5 5 5 6 8 8 10 11 12 12 13 13 14 14 15 16 17 18 18 19 20 21 22 22 23 24 24 25 25
Wind_Direction
350 347 346 349 360 359 345 324 303 299 300 302 298 294 290 286 279 271 262 240 235 235 232 231 232 231 231 232 236 238 244 251 251 248 246 244 248 254 259 275 351 8 7 16 24 26 26 25 24
349 346 344 349 353 360 335 305 297 298 302 300 295 291 287 282 272 266 262 249 241 238 231 229 230 230 232 234 240 240 246 251 253 255 255 259 262 265 272 282 307 315 312 319 320 318 316 322 319
349 345 348 355 9 353 312 298 297 302 302 297 293 289 287 280 276 266 255 251 241 238 229 224 228 230 230 234 242 246 249 250 254 257 262 265 267 268 273 282 294 301 300 295 291 287 282 276 278
347 349 355 13 10 325 297 296 300 301 304 299 293 290 285 277 271 265 256 253 240 231 221 221 227 230 230 233 240 247 251 253 256 261 267 269 272 277 279 285 289 294 295 291 285 280 273 270 265
343 349 7 23 352 303 296 299 306 303 301 297 293 287 285 280 271 262 259 250 238 228 224 221 224 228 229 234 242 242 248 257 263 265 268 269 275 282 284 283 283 286 288 287 285 283 272 266 260
341 346 32 16 325 293 296 306 313 310 303 299 292 287 283 278 272 261 255 246 235 227 222 219 222 225 231 236 239 242 248 258 264 268 270 273 279 281 281 279 278 279 282 284 286 282 273 265 261
347 2 32 352 296 297 303 309 313 309 307 300 296 288 277 269 270 264 254 244 236 226 220 220 221 224 228 234 239 242 249 256 262 267 270 275 281 281 280 276 275 277 278 280 281 279 278 268 257
359 24 61 338 294 296 305 313 317 312 305 301 294 288 280 269 266 262 256 243 230 223 222 220 220 224 229 235 242 244 249 256 261 264 267 272 277 280 280 276 272 273 273 275 279 277 277 269 252
15 43 42 291 285 296 306 312 317 317 311 305 296 291 285 274 269 262 254 242 234 226 224 222 222 225 229 235 242 246 250 256 260 262 265 270 273 275 277 274 269 268 266 266 271 271 274 270 259
11 27 336 289 306 314 315 319 321 318 315 308 300 295 285 277 270 264 257 245 236 227 224 223 222 225 230 237 243 250 253 255 259 263 266 270 270 268 271 271 267 264 264 265 266 267 266 268 265
4 350 317 321 326 327 326 322 319 314 310 307 303 300 291 278 269 262 255 245 238 228 224 223 223 228 232 238 245 251 254 255 260 262 264 270 270 269 272 271 268 267 262 263 266 260 258 261 263
353 347 339 335 334 337 334 327 321 317 314 306 302 300 295 280 271 262 252 245 236 229 223 224 225 228 231 238 246 254 256 259 261 263 266 268 269 270 274 275 273 270 267 269 272 262 258 258 263
352 349 342 336 337 340 338 335 327 324 318 309 304 298 296 283 270 261 249 242 236 232 225 225 226 228 232 236 246 254 258 260 258 261 266 268 266 269 273 274 275 273 270 273 273 270 269 268 270
6 357 343 336 335 337 339 336 329 325 323 317 312 304 295 285 268 256 248 241 235 230 230 226 228 229 232 238 246 251 254 254 254 257 261 261 263 264 265 273 274 273 271 281 281 279 276 273 271
8 0 348 343 337 330 332 333 330 332 329 325 318 311 299 284 267 257 251 244 235 232 232 227 229 232 233 240 244 247 249 248 251 252 251 254 258 259 262 270 279 284 296 308 308 302 296 293 289
5 354 345 336 329 328 331 334 332 334 333 330 325 316 309 290 271 256 252 240 230 229 228 224 229 232 235 238 241 243 244 247 248 247 247 245 243 240 243 249 257 271 311 332 338 330 321 315 305
356 338 335 326 321 325 328 330 331 336 335 333 331 326 316 301 281 261 248 238 230 226 225 225 231 233 234 236 236 236 238 244 241 236 234 228 221 222 226 228 235 251 330 350 357 346 341 335 326
324 320 318 313 314 319 325 330 332 339 339 337 334 332 323 306 286 269 251 236 229 223 224 226 228 230 234 234 231 233 236 234 228 226 223 219 215 220 224 220 213 222 331 345 351 353 353 350 352
305 313 313 312 314 321 328 334 335 342 345 342 339 337 332 320 300 277 256 239 231 225 225 227 229 229 231 229 226 229 229 226 223 221 218 215 212 213 209 195 173 137 51 14 9 13 10 4 3
312 315 314 313 315 323 331 334 333 341 348 345 343 342 340 334 319 293 265 245 230 223 224 224 225 225 225 227 226 223 220 219 212 210 210 208 206 202 196 187 167 144 76 31 24 19 14 10 8
309 306 306 311 320 326 328 325 327 340 347 348 346 346 346 342 333 302 263 242 231 225 220 223 225 222 221 220 220 218 215 211 207 207 208 205 202 198 195 189 177 173 261 7 14 10 6 5 3
298 297 302 312 321 313 307 315 323 337 348 349 346 346 348 347 340 320 262 232 227 219 217 218 219 216 214 216 216 212 209 208 208 204 205 204 202 199 199 201 205 219 257 299 320 336 345 347 346
291 296 304 310 304 290 299 340 320 332 341 343 344 343 345 349 346 340 285 231 222 213 212 210 208 206 209 212 209 208 209 209 205 203 206 208 208 208 211 217 228 245 264 280 293 300 308 315 320
295 304 310 312 310 308 339 352 313 328 336 337 340 342 342 349 354 6 13 209 208 213 205 201 201 205 207 205 206 208 209 207 205 206 211 216 220 224 229 234 245 257 269 280 287 292 295 299 304
290 301 311 312 319 333 348 319 296 321 329 333 336 340 341 347 357 2 16 39 179 198 194 196 198 201 202 201 201 205 208 208 208 211 217 224 231 237 241 247 256 264 272 279 283 288 290 292 296
280 292 300 302 309 315 313 295 302 318 323 328 332 338 342 349 359 4 5 14 107 170 183 194 201 203 203 202 203 208 212 213 214 217 224 232 237 242 249 257 264 270 275 280 284 288 290 292 293
277 280 284 293 302 304 302 303 300 306 322 329 329 331 332 339 352 1 13 25 20 197 196 198 200 201 202 205 209 216 220 223 226 228 234 240 245 251 256 263 269 274 278 282 285 288 289 291 293
273 276 280 285 291 299 303 304 300 309 321 324 323 323 322 324 333 341 342 349 336 279 229 215 212 211 212 216 222 225 229 233 234 238 244 250 255 259 263 268 273 277 281 284 287 288 289 290 291
267 273 282 282 279 277 293 302 303 308 314 316 316 316 317 317 313 314 314 311 306 279 252 236 231 229 229 231 232 233 235 239 242 247 252 257 261 265 269 273 276 279 282 285 287 288 288 289 290
261 263 270 276 279 272 274 284 291 296 305 310 309 306 304 305 302 300 295 290 286 285 272 253 246 247 245 242 242 242 245 248 252 256 259 263 266 270 274 277 279 282 285 286 287 287 288 288 289
Height
5900 5899 5899 5899 5900 5898 5896 5895 5894 5893 5891 5891 5890 5889 5888 5888 5887 5888 5883 5882 5886 5888 5890 5891 5893 5894 5895 5896 5897 5898 5898 5899 5899 5899 5899 5899 5898 5898 5898 5898 5898 5897 5897 5897 5896 5896 5896 5896 5895
5900 5899 5899 5899 5899 5897 5896 5895 5892 5891 5890 5889 5888 5887 5886 5885 5884 5884 5883 5881 5884 5886 5888 5890 5891 5893 5894 5896 5897 5897 5898 5898 5898 5898 5898 5898 5898 5898 5898 5898 5897 5897 5897 5896 5896 5896 5896 5895 5895
5899 5898 5898 5899 5898 5897 5897 5895 5892 5889 5888 5887 5885 5885 5884 5883 5882 5882 5881 5879 5882 5884 5886 5888 5890 5891 5893 5894 5896 5896 5897 5897 5898 5898 5898 5898 5898 5898 5897 5897 5897 5896 5896 5896 5895 5895 5895 5895 5895
5899 5898 5898 5898 5898 5898 5897 5894 5890 5888 5886 5884 5883 5882 5882 5881 5880 5880 5878 5878 5880 5882 5884 5886 5888 5890 5891 5893 5894 5895 5896 5897 5897 5897 5897 5897 5897 5897 5897 5896 5896 5896 5895 5895 5895 5894 5894 5894 5894
5898 5897 5897 5896 5898 5898 5895 5892 5889 5887 5884 5883 5881 5879 5879 5878 5878 5878 5877 5877 5878 5880 5882 5884 5886 5888 5890 5891 5893 5894 5895 5896 5896 5896 5896 5896 5896 5896 5896 5895 5895 5895 5895 5894 5894 5894 5894 5894 5894
5897 5896 5896 5898 5900 5897 5894 5890 5887 5885 5882 5880 5878 5876 5876 5876 5875 5875 5875 5875 5876 5878 5880 5882 5885 5887 5888 5890 5891 5893 5894 5895 5895 5895 5895 5895 5895 5895 5895 5894 5894 5894 5894 5893 5893 5893 5893 5893 5893
5897 5895 5896 5900 5900 5896 5891 5888 5885 5883 5880 5878 5875 5873 5873 5873 5872 5872 5872 5872 5873 5875 5878 5880 5883 5885 5887 5888 5890 5891 5893 5893 5894 5894 5894 5894 5894 5894 5894 5893 5893 5893 5893 5892 5892 5892 5892 5892 5892
5895 5895 5895 5899 5898 5895 5890 5886 5883 5881 5878 5876 5874 5871 5870 5869 5869 5869 5870 5868 5869 5873 5876 5878 5881 5883 5885 5887 5888 5890 5891 5892 5892 5892 5893 5893 5893 5892 5892 5892 5892 5892 5892 5892 5891 5891 5891 5891 5891
5895 5895 5895 5897 5894 5892 5888 5885 5881 5878 5875 5873 5871 5869 5867 5866 5866 5866 5866 5866 5867 5871 5874 5876 5879 5881 5883 5885 5887 5888 5889 5890 5891 5891 5891 5891 5891 5891 5890 5890 5890 5891 5891 5891 5890 5890 5890 5890 5890
5895 5894 5895 5894 5892 5889 5886 5882 5879 5876 5872 5869 5867 5866 5864 5863 5864 5864 5864 5865 5865 5868 5871 5873 5876 5878 5881 5883 5885 5887 5888 5889 5889 5889 5889 5889 5889 5889 5889 5889 5889 5889 5889 5889 5889 5889 5889 5889 5889
5893 5894 5892 5891 5889 5886 5883 5880 5877 5874 5870 5866 5863 5861 5861 5860 5860 5861 5861 5861 5863 5865 5867 5869 5873 5876 5878 5881 5883 5885 5886 5887 5887 5887 5888 5887 5887 5887 5888 5887 5888 5888 5888 5888 5888 5888 5888 5888 5888
5893 5892 5890 5889 5886 5884 5881 5877 5874 5871 5868 5863 5861 5858 5857 5856 5855 5856 5857 5858 5860 5862 5864 5867 5870 5872 5875 5878 5881 5883 5884 5885 5885 5886 5886 5886 5886 5886 5886 5886 5886 5886 5887 5887 5887 5887 5887 5887 5887
5892 5891 5889 5887 5884 5882 5879 5875 5872 5868 5865 5861 5858 5855 5854 5852 5852 5851 5853 5854 5856 5859 5862 5865 5868 5871 5874 5876 5878 5880 5882 5883 5883 5884 5884 5884 5885 5885 5885 5885 5885 5886 5886 5886 5886 5886 5886 5886 5886
5891 5889 5887 5885 5883 5880 5877 5873 5869 5865 5861 5858 5855 5851 5849 5848 5847 5845 5847 5850 5852 5855 5859 5862 5865 5868 5871 5873 5876 5878 5879 5881 5882 5882 5883 5883 5883 5884 5884 5884 5884 5885 5885 5885 5885 5885 5885 5885 5885
5889 5888 5885 5883 5881 5878 5876 5871 5866 5862 5859 5855 5852 5849 5846 5845 5843 5843 5844 5847 5848 5852 5856 5859 5862 5865 5868 5871 5873 5876 5877 5879 5880 5881 5881 5882 5882 5883 5883 5883 5884 5884 5884 5884 5884 5884 5884 5884 5884
5888 5887 5885 5883 5880 5878 5876 5871 5865 5860 5857 5853 5849 5846 5844 5842 5840 5840 5841 5843 5846 5849 5853 5857 5860 5863 5866 5868 5871 5874 5875 5877 5878 5879 5880 5881 5881 5882 5882 5883 5883 5883 5883 5883 5884 5884 5884 5883 5883
5888 5887 5886 5884 5880 5877 5874 5869 5864 5859 5855 5851 5847 5844 5841 5840 5838 5837 5838 5839 5843 5845 5850 5853 5857 5860 5863 5866 5869 5871 5873 5875 5877 5878 5879 5880 5880 5881 5882 5882 5882 5883 5883 5883 5883 5883 5883 5883 5883
5889 5888 5887 5884 5880 5876 5872 5868 5863 5859 5855 5851 5847 5843 5840 5838 5837 5835 5836 5838 5840 5842 5847 5850 5854 5857 5860 5863 5866 5869 5872 5873 5875 5877 5878 5879 5880 5880 5881 5882 5882 5882 5883 5883 5883 5883 5883 5882 5882
5887 5886 5884 5881 5878 5875 5870 5866 5862 5858 5855 5851 5847 5843 5840 5836 5835 5835 5835 5837 5838 5841 5844 5847 5851 5854 5858 5861 5864 5867 5870 5872 5874 5876 5877 5878 5879 5880 5881 5881 5882 5882 5883 5883 5883 5882 5882 5882 5882
5885 5884 5882 5879 5876 5873 5868 5865 5861 5857 5854 5851 5847 5843 5840 5837 5835 5835 5835 5835 5837 5839 5842 5845 5849 5852 5855 5859 5862 5866 5868 5871 5873 5875 5876 5877 5878 5879 5880 5881 5881 5882 5882 5882 5882 5882 5882 5882 5882
5883 5882 5879 5877 5874 5871 5867 5863 5859 5855 5853 5851 5847 5844 5840 5837 5835 5834 5834 5835 5836 5838 5841 5844 5847 5850 5853 5857 5861 5864 5866 5869 5872 5873 5875 5877 5878 5878 5879 5880 5881 5882 5882 5882 5882 5882 5882 5882 5881
5881 5879 5877 5875 5872 5869 5866 5861 5857 5854 5852 5850 5848 5844 5841 5838 5836 5835 5834 5835 5836 5837 5839 5842 5845 5849 5851 5855 5859 5862 5865 5868 5870 5872 5874 5876 5877 5878 5879 5880 5880 5881 5881 5882 5882 5882 5881 5881 5881
5878 5876 5874 5871 5868 5864 5860 5861 5857 5855 5852 5850 5848 5845 5842 5839 5837 5835 5834 5835 5835 5837 5839 5841 5845 5848 5851 5854 5858 5861 5864 5867 5869 5871 5873 5875 5876 5877 5878 5879 5879 5880 5880 5881 5881 5881 5881 5880 5880
5875 5873 5871 5868 5863 5857 5857 5859 5857 5855 5853 5851 5848 5845 5842 5839 5837 5836 5835 5835 5836 5837 5839 5842 5845 5848 5850 5854 5857 5860 5863 5865 5867 5870 5872 5873 5874 5876 5876 5877 5878 5879 5879 5879 5880 5879 5879 5879 5879
5873 5871 5869 5867 5862 5857 5857 5858 5857 5854 5853 5851 5848 5846 5842 5840 5839 5837 5837 5836 5837 5838 5840 5842 5844 5847 5850 5853 5856 5859 5861 5864 5866 5868 5870 5872 5873 5874 5875 5876 5876 5877 5877 5878 5878 5877 5877 5877 5877
5870 5869 5868 5865 5863 5861 5858 5855 5854 5852 5852 5850 5848 5846 5844 5842 5840 5839 5838 5838 5838 5839 5840 5842 5844 5847 5850 5852 5855 5857 5860 5862 5864 5866 5868 5870 5871 5872 5873 5873 5874 5875 5875 5875 5875 5875 5875 5874 5874
5867 5866 5866 5863 5862 5860 5858 5852 5851 5850 5849 5848 5848 5846 5844 5843 5841 5840 5840 5840 5840 5841 5841 5843 5845 5847 5849 5852 5854 5856 5858 5860 5862 5864 5866 5867 5868 5869 5870 5871 5871 5872 5872 5872 5872 5871 5871 5871 5870
5863 5863 5862 5861 5859 5858 5856 5852 5849 5847 5848 5847 5846 5845 5844 5843 5842 5841 5841 5841 5841 5841 5842 5843 5845 5847 5849 5851 5853 5855 5857 5858 5860 5862 5863 5864 5865 5866 5867 5867 5868 5868 5868 5868 5868 5867 5867 5866 5866
5859 5859 5858 5858 5857 5856 5855 5853 5848 5846 5847 5846 5845 5844 5843 5843 5842 5841 5841 5841 5841 5841 5842 5843 5844 5846 5848 5849 5851 5853 5855 5856 5858 5859 5860 5861 5862 5862 5863 5863 5863 5864 5863 5863 5863 5862 5862 5861 5860
5854 5854 5854 5854 5854 5853 5853 5853 5847 5845 5844 5845 5844 5843 5842 5842 5841 5841 5841 5840 5841 5841 5842 5842 5844 5845 5846 5848 5849 5851 5852 5853 5854 5855 5856 5857 5857 5858 5858 5858 5858 5858 5858 5858 5857 5856 5856 5855 5854